Regional Weather Roundup
Issued by NWS

Home | Current Version | Previous Version | Graphics & Text | Print | Product List | Glossary On
Versions: 1 2 3 4 5 6 7 8 9 10 11 12 13 14 15 16 17 18 19 20 21 22 23 24 25 26 27 28 29 30 31 32 33 34 35 36 37 38 39 40 41 42 43 44 45 46 47 48 49 50
000
ASUS43 KMPX 262101
RWRMN
WEATHER ROUNDUP FOR MINNESOTA
NATIONAL WEATHER SERVICE TWIN CITIES/CHANHASSEN MN
400 PM CDT FRI AUG 26 2016


NOTE: "FAIR" INDICATES FEW OR NO CLOUDS BELOW 12,000 FEET WITH NO
SIGNIFICANT WEATHER AND/OR OBSTRUCTIONS TO VISIBILITY. N/A MEANS
CURRENT SKY AND/OR WEATHER CONDITIONS ARE NOT AVAILABLE.

MNZ060>063-068>070-262200-
   Twin Cities Metro

CITY           SKY/WX    TMP DP  RH WIND       PRES   REMARKS
TWIN CITIES    CLOUDY    72  54  53 SE6       30.15S
ST PAUL        CLOUDY    71  54  54 SE7       30.15S
CRYSTAL        CLOUDY    72  51  47 SW5       30.13F
BLAINE         CLOUDY    73  54  49 CALM      30.15S
LAKEVILLE      PTSUNNY   70  55  60 CALM      30.16R
EDEN PRAIRIE   PTSUNNY   72  55  55 VRB6      30.14S
LAKEVILLE      PTSUNNY   70  55  60 CALM      30.16R
SOUTH ST PAUL  CLOUDY    71  53  53 S6        30.15S
LAKE ELMO      FAIR      70  54  56 CALM      30.17R
$$
MNZ001>005-007-008-013>017-022>024-027-028-262200-
   Northwest Minnesota

CITY           SKY/WX    TMP DP  RH WIND       PRES   REMARKS
BEMIDJI        MOSUNNY   74  46  36 W8        30.09S
HALLOCK        CLOUDY    75  48  38 SW12      29.99F
ROSEAU         MOSUNNY   75  45  33 SW8       30.03F
WARROAD        SUNNY     75  54  46 W5        30.03F
THIEF RVR FALL MOSUNNY   75  46  35 S12       30.05F
CROOKSTON      MOSUNNY   75  48  38 SW14      30.04F
FOSSTON        SUNNY     73  46  38 SW8       30.08F
DETROIT LAKES  SUNNY     72  50  46 SW9       30.11F
MOORHEAD       PTSUNNY   73  48  40 SW9       30.08F
PARK RAPIDS    PTSUNNY   72  48  42 W10       30.10F
MAHNOMEN       FAIR      73  49  42 SW9       30.08F
$$
MNZ006-009>011-018-025>026-262200-
   North Central Minnesota

CITY           SKY/WX    TMP DP  RH WIND       PRES   REMARKS
BAUDETTE       MOSUNNY   75  47  36 SW9       30.04F
FLAG ISLAND    SUNNY     73  55  53 S5        30.02F
INTL FALLS     MOSUNNY   71  50  47 W5        30.06F
WASKISH        SUNNY     73  50  43 SW8       30.07F
BIG FORK       MOSUNNY   72  48  43 SW3       30.09S
LONGVILLE      CLOUDY    73  48  40 SW7       30.10S
GRAND RAPIDS   SUNNY     73  46  38 VRB3      30.12S
CRANE LAKE     MOSUNNY   70  46  43 S3        30.10F
ORR            MOSUNNY   73  43  33 CALM      30.07S
COOK           SUNNY     73  46  38 W5        30.10S
WALKER         FAIR      72  48  42 SW8       30.09S
$$
MNZ012-019>021-037-262200-
   Northeast Minnesota

CITY           SKY/WX    TMP DP  RH WIND       PRES   REMARKS
DULUTH         CLOUDY    71  53  52 SE9       30.12F
ELY            MOSUNNY   72  45  37 SW7       30.10F
HIBBING        CLOUDY    71  47  42 SW7       30.10F
EVELETH        CLOUDY    73  46  38 W5        30.12S
DULUTH HARBOR  CLOUDY    72  59  64 E5        30.12S
TWO HARBORS    MOSUNNY   72  55  56 SE6       30.12R
SILVER BAY     CLOUDY    68  52  56 S9        30.12S
G MARAIS ARPRT SUNNY     63  48  59 S6        30.15S
$$
MNZ029>031-032-039>041-046>048-054>057-064-262200-
   West Central Minnesota

CITY           SKY/WX    TMP DP  RH WIND       PRES   REMARKS
FERGUS FALLS   CLOUDY    73  52  46 SW9       30.11F
WHEATON        CLOUDY    73  55  53 S5        30.13S
MORRIS         MOSUNNY   73  52  46 CALM      30.12F
ALEXANDRIA     CLOUDY    71  50  47 S8        30.15F
ELBOW LAKE     FAIR      72  53  52 SW9       30.13S
WADENA         CLOUDY    73  50  43 SW8       30.12S
GLENWOOD       CLOUDY    72  52  49 S7        30.15F
APPLETON       CLOUDY    73  54  49 S7        30.13S
BENSON         CLOUDY    72  52  49 CALM      30.13F
ORTONVILLE     CLOUDY    72  52  49 SE6       30.12S
MADISON        MOSUNNY   72  54  53 S3        30.13F
WILLMAR        FAIR      72  55  56 S3        30.16S
$$
MNZ033>034-036-042>043-049>051-058-059-262200-
   Central Minnesota

CITY           SKY/WX    TMP DP  RH WIND       PRES   REMARKS
ST CLOUD       CLOUDY    71  53  52 S7        30.14S
SAUK CENTRE    FAIR      71  53  52 SW8       30.14S
PAYNESVILLE    CLOUDY    71  51  49 S6        30.16S
AITKIN         CLOUDY    75  43  31 SW9       30.11S
PINE RIVER     CLOUDY    73  52  46 S7        30.14S
BRAINERD       CLOUDY    73  49  42 SW8       30.12F
STAPLES        CLOUDY    70  48  46 SW3       30.12S
LONG PRAIRIE   PTSUNNY   72  52  49 S6        30.14S
LITTLE FALLS   CLOUDY    72  48  43 SW6       30.14S
LITCHFIELD     CLOUDY    72  55  56 CALM      30.16R
BUFFALO        CLOUDY    70  51  49 CALM      30.16S
MAPLE LAKE     CLOUDY    72  55  54 CALM      30.16S
HUTCHINSON     CLOUDY    70  58  65 SE3       30.17S
$$
MNZ037-044-045-052-053-262200-
   East Central Minnesota

CITY           SKY/WX    TMP DP  RH WIND       PRES   REMARKS
PRINCETON      CLOUDY    75  54  46 S6        30.15R
MORA           CLOUDY    70  52  52 SW7       30.16R
CAMBRIDGE      CLOUDY    73  55  53 SW6       30.13S
RUSH CITY      CLOUDY    71  52  51 S6        30.14S
MOOSE LAKE     CLOUDY    72  52  49 SW8       30.11F
HINCKLEY       CLOUDY    70  55  60 SW5       30.14S
CLOQUET        CLOUDY    72  48  43 SW8       30.12F
MCGREGOR       MOSUNNY   73  50  43 SW6       30.13R
$$
MNZ071>073-080-081-089-090-097-098-262200-
   Southwest Minnesota

CITY           SKY/WX    TMP DP  RH WIND       PRES   REMARKS
MONTEVIDEO     CLOUDY    73  57  56 SW6       30.16S
GRANITE FALLS  MOSUNNY   72  57  58 SE5       30.16S
CANBY          PTSUNNY   71  56  58 SE6       30.14F
MARSHALL       CLOUDY    71  53  52 S6        30.14F
REDWOOD FALLS  CLOUDY    70  53  54 SE5       30.15S
OLIVIA         CLOUDY    70  54  56 SE5       30.15S
PIPESTONE      CLOUDY    70  55  60 S7        30.14S
WINDOM         PTSUNNY   70  55  60 SE5       30.16R
WORTHINGTON    CLOUDY    68  58  70 E7        30.16S
JACKSON          N/A     70  54  56 SE5       30.17R
TRACY          CLOUDY    71  57  61 S5        30.15S
$$
MNZ065>067-074>077-082>085-091>093-262200-
   South Central Minnesota

CITY           SKY/WX    TMP DP  RH WIND       PRES   REMARKS
MANKATO        MOSUNNY   70  55  60 SE5       30.16S
NEW ULM        PTSUNNY   70  55  60 CALM      30.15S
ST JAMES       CLOUDY    64  52  63 CALM      30.16S
FAIRMONT       PTSUNNY   70  58  65 SE8       30.16S
GLENCOE        PTSUNNY   71  58  64 CALM      30.15S
FARIBAULT      CLOUDY    72  55  56 CALM      30.16S
OWATONNA       CLOUDY    70  55  60 CALM      30.16S
WASECA         CLOUDY    70  57  64 S3        30.17S
ALBERT LEA     CLOUDY    70  55  60 S3        30.17R
$$
MNZ078>079-086>088-094>096-262200-
   Southeast Minnesota

CITY           SKY/WX    TMP DP  RH WIND       PRES   REMARKS
ROCHESTER      CLOUDY    70  57  63 S3        30.17S
RED WING       PTSUNNY   72  48  43 CALM      30.15R
STANTON        MOSUNNY   70  55  60 CALM      30.15S
DODGE CENTER   PTSUNNY   72  55  56 SE6       30.17R
WINONA         CLOUDY    70  55  60 SE3       30.16R
AUSTIN         CLOUDY    68  55  64 CALM      30.16F
PRESTON        CLOUDY    68  54  61 SE3       30.17F
$$
ABBREVIATIONS USED IN REMARKS
   TC - TEMPERATURES IN CELSIUS
  WCI - WIND CHILL INDEX
   HX - HEAT INDEX
  VSB - VISIBILITY
$$




USA.gov is the U.S. government's official web portal to all federal, state and local government web resources and services.